Location: Vihti�l�
(61.3833°N, 23.0667°E)
Time: 04:36:26
(UTC+00:00)

Meteor 1-27 Rocket - Pass Details

Date: 29 November 2020
Orbit: 830 x 909 km, 81.3° (Epoch: 22 January)

Event Time Altitude Azimuth Distance (km) Brightness Sun altitude
Exits shadow 05:08:50 - 339° (NNW) 2,963 6.1 -12.8°
Reaches altitude 10° 05:10:03 10° 335° (NNW) 2,526 5.8 -12.6°
Maximum altitude 05:15:24 42° 267° (W) 1,238 4.2 -12.0°
Drops below altitude 10° 05:20:50 10° 198° (SSW) 2,560 6.3 -11.4°
Sets 05:23:24 0° 192° (SSW) 3,506 7.1 -11.2°
